Wind_Speed
24 24 23 24 24 24 24 24 25 25 25 25 25 25 25 25 25 25 25 25 25 26 26 26 27 28 28 29 29 29 29 29 30 30 30 30 29 29 28 28 28 29 30 30 29 29 29 30 29 27 27 27 27 26 27 27 26 24 23 20 17 16 17 17 17 19 22 24 26 27 28 29 30 33 37 39 40 40 39 39 38 38 37 36 33 33 32 31
25 25 25 25 25 25 25 25 25 25 25 25 25 25 25 25 25 24 24 24 25 25 25 25 26 27 27 28 28 28 28 29 29 29 29 29 29 29 28 28 29 29 29 30 29 28 29 29 29 27 27 26 26 26 27 27 26 24 22 19 16 16 18 19 19 21 23 26 27 28 29 30 30 32 35 38 41 40 39 39 40 39 38 38 37 36 34 32
28 27 27 27 26 26 26 26 26 26 25 25 25 25 25 25 25 25 24 24 24 24 24 24 25 26 26 27 27 27 28 28 29 29 29 29 29 29 28 28 29 29 29 29 29 28 28 29 28 27 27 26 26 26 26 27 26 25 23 18 15 16 19 20 20 22 25 27 28 29 30 30 30 31 33 36 39 41 40 39 39 39 39 39 38 37 35 34
29 29 29 28 28 28 27 27 27 26 26 25 25 25 25 25 25 25 25 25 25 24 24 24 24 25 26 26 26 27 28 28 29 29 29 30 29 29 28 28 28 28 28 28 28 28 28 28 28 27 26 26 26 26 26 26 26 26 22 17 16 18 20 21 21 23 25 26 29 30 30 30 29 30 31 33 37 40 41 40 39 38 39 38 37 36 34 34
28 29 30 30 29 29 29 28 28 28 27 26 26 26 26 26 26 27 27 27 26 25 24 24 24 25 25 26 26 26 28 29 29 29 29 30 29 29 28 28 27 27 27 27 27 27 27 27 26 26 25 26 26 26 25 25 27 26 21 17 17 19 20 22 22 22 24 26 29 31 30 29 27 27 28 30 35 38 39 39 37 35 34 33 32 31 30 30
27 28 29 30 30 30 30 30 29 29 29 28 28 28 27 28 28 29 29 29 28 27 26 26 25 25 25 26 26 26 27 29 29 29 29 29 28 28 28 28 27 27 27 27 26 27 27 26 25 26 25 26 26 26 25 26 28 26 21 18 18 18 20 23 24 23 24 25 27 29 28 26 25 24 26 29 33 36 36 35 33 29 28 27 26 26 26 25
27 28 29 30 31 31 31 30 30 30 30 29 29 29 29 29 30 30 30 30 29 28 28 27 26 26 26 25 25 26 27 28 28 28 28 27 27 27 26 26 26 27 26 26 26 26 26 25 26 26 26 26 27 26 25 27 28 26 21 19 19 20 21 24 25 25 24 23 25 26 26 25 24 23 25 28 32 33 33 33 29 26 25 24 23 23 22 20
26 27 28 29 30 31 31 31 31 31 30 30 30 30 30 30 31 31 30 30 29 28 28 28 28 27 26 25 25 26 27 27 27 27 27 26 26 26 26 25 25 26 26 26 25 26 26 26 26 26 27 28 28 27 27 28 28 24 22 21 22 23 23 24 24 24 24 23 24 24 24 24 22 23 25 28 30 30 31 31 28 26 26 24 22 20 18 15
24 25 27 28 29 30 30 30 30 30 30 30 30 30 30 30 31 30 30 29 28 28 27 27 28 27 26 25 25 26 26 26 26 26 25 26 25 25 25 25 25 25 25 25 24 25 26 26 27 28 29 29 28 28 28 28 27 24 23 24 24 24 23 23 23 24 23 23 23 22 21 21 20 22 25 26 26 26 27 27 26 26 26 22 19 17 15 14
23 24 25 27 28 29 29 30 30 30 30 29 29 29 29 30 30 29 29 28 27 27 26 26 26 26 26 25 25 26 26 26 26 25 25 25 25 25 25 25 24 24 24 24 24 25 26 27 28 29 29 29 29 29 27 27 25 24 24 25 24 24 23 23 24 24 23 23 23 22 20 20 20 20 21 22 22 23 23 23 24 24 22 19 17 16 15 14
22 23 24 25 27 28 29 29 29 29 29 29 28 28 28 28 27 27 27 26 26 25 25 25 25 25 25 25 26 26 26 26 25 24 25 25 24 24 24 24 24 24 24 24 24 25 26 27 27 28 29 29 28 27 26 25 24 24 24 24 24 23 23 23 24 24 24 25 24 22 20 19 18 17 19 20 20 21 21 21 22 22 20 18 17 16 15 14
20 22 23 24 25 27 28 28 28 29 29 28 28 27 26 26 25 25 25 24 24 24 24 24 24 24 24 25 26 25 25 26 24 24 25 24 24 24 23 24 24 23 23 24 24 25 25 25 25 26 27 27 27 26 25 24 23 23 23 24 24 23 24 24 24 25 25 26 24 22 21 19 16 16 18 19 20 20 20 21 22 21 19 18 18 17 16 16
19 20 21 22 23 25 26 27 27 28 28 28 27 26 25 24 24 23 23 23 23 23 23 23 23 23 24 25 25 25 26 25 24 24 24 23 22 22 22 23 23 23 23 23 23 23 23 23 23 25 25 25 26 26 25 24 24 24 23 24 24 23 25 25 26 26 27 27 26 25 24 22 19 19 21 20 20 21 20 21 22 21 20 19 19 18 17 16
19 19 19 20 21 22 24 25 26 26 27 27 26 25 24 23 23 22 22 22 22 22 22 23 23 23 24 24 24 25 25 24 23 23 23 21 20 20 20 21 21 22 22 22 22 22 23 23 23 23 23 24 25 25 26 25 25 25 25 25 25 25 26 27 28 28 28 29 28 28 26 23 21 22 23 23 24 24 21 20 21 20 20 20 20 19 18 17
18 19 19 19 19 20 22 23 25 25 25 25 25 24 23 23 23 22 22 22 22 22 22 22 23 23 24 24 24 25 24 23 22 22 21 20 19 18 18 19 20 21 21 21 22 23 23 23 23 23 22 23 24 25 26 26 26 26 26 26 26 27 27 28 29 29 29 30 30 29 26 23 22 23 25 26 28 26 20 19 20 20 20 20 20 19 18 18
18 18 18 18 18 19 20 21 22 23 24 24 24 23 23 23 23 23 22 22 22 22 22 23 23 24 24 23 23 24 24 23 22 21 21 19 18 17 17 18 19 19 20 20 21 22 22 22 23 23 23 24 25 26 27 27 27 27 26 27 27 26 27 28 29 29 30 30 30 29 26 25 24 25 27 30 30 25 19 19 21 20 20 20 19 18 18 18
17 17 17 18 18 18 18 19 20 21 22 23 23 23 23 23 23 23 22 22 22 22 22 23 24 23 23 22 22 23 23 22 21 21 21 19 18 17 17 17 17 18 18 19 19 20 20 21 22 23 24 25 26 27 27 27 27 27 27 28 28 26 26 27 29 30 30 31 30 29 27 26 25 26 30 31 30 24 19 20 20 19 20 19 19 18 18 18
17 17 17 17 17 18 18 18 19 20 21 22 22 23 23 23 23 23 22 22 22 22 23 24 23 23 23 22 21 21 21 20 19 19 19 19 19 18 17 16 16 17 17 17 18 19 19 20 22 23 24 25 26 27 27 27 27 28 28 28 28 26 26 28 30 31 30 29 29 28 26 26 26 27 29 30 28 23 21 22 21 20 20 19 20 19 18 16
18 18 17 17 17 18 18 18 18 19 20 21 21 22 22 22 22 23 23 23 23 23 23 23 23 23 23 21 20 19 19 19 18 18 18 18 18 18 17 16 16 16 17 17 18 19 18 19 20 20 21 23 24 25 26 27 27 28 28 27 27 26 26 28 30 30 28 27 26 25 24 23 24 25 26 28 27 23 21 22 21 21 21 20 20 18 15 13
19 18 18 18 18 18 18 18 18 18 19 19 20 21 21 21 22 23 23 23 24 23 23 23 22 23 23 22 20 18 18 18 18 17 17 18 18 18 17 17 16 16 17 18 18 18 17 16 16 17 20 22 23 24 25 27 28 28 28 26 26 25 26 28 28 27 25 23 23 23 23 21 21 23 24 26 24 20 18 19 20 21 22 21 20 16 13 10
21 20 19 19 19 19 19 19 18 18 19 19 19 19 19 20 22 22 22 23 24 23 23 23 22 23 23 22 21 20 19 18 18 17 17 17 17 17 17 17 17 17 18 18 18 17 16 15 15 18 21 22 23 24 26 28 27 27 26 25 25 25 26 26 25 23 23 22 22 23 23 21 21 22 22 21 18 15 15 17 17 19 20 20 18 15 11 9
23 22 21 20 20 19 20 20 19 19 19 19 19 18 19 20 21 22 22 23 23 23 23 23 22 23 23 22 22 21 19 18 18 18 17 17 17 17 17 18 18 18 18 18 17 17 17 17 18 20 20 21 22 24 26 26 26 25 24 23 24 24 25 25 23 22 23 22 22 23 23 21 21 20 19 18 16 15 15 15 17 18 19 18 16 13 9 7
25 24 24 23 22 21 20 20 20 20 20 20 19 19 20 21 21 21 20 21 22 21 22 23 23 23 23 23 22 21 20 20 19 18 17 18 18 18 17 18 19 19 18 18 18 19 20 20 21 21 20 19 20 22 24 24 24 23 23 23 24 25 25 25 25 24 24 22 21 24 24 22 21 19 18 18 18 17 16 16 17 18 18 16 14 10 6 7
26 26 25 25 24 23 22 21 20 20 20 20 20 20 21 22 21 20 19 19 20 20 20 22 23 23 23 23 22 22 22 21 18 17 18 18 18 18 17 18 19 18 18 19 19 20 22 22 21 20 20 19 19 20 21 21 21 21 21 22 24 26 26 26 27 26 25 23 22 24 24 22 21 20 20 20 20 19 16 15 15 14 14 13 11 9 7 9
27 27 27 26 26 25 24 23 22 20 20 20 20 21 22 23 22 21 20 19 19 20 19 20 23 23 24 23 21 22 22 21 19 18 18 19 19 18 19 19 18 18 19 19 20 21 22 21 20 20 20 20 19 19 19 20 20 20 20 22 24 26 26 27 28 28 28 25 24 25 24 22 21 21 23 23 23 21 17 14 13 12 13 13 11 10 9 11
28 27 27 27 27 26 25 24 24 22 20 20 21 22 23 24 22 21 22 20 18 19 18 20 22 24 24 22 19 21 22 21 21 20 19 20 20 19 20 19 18 19 20 20 22 22 22 21 21 21 21 20 20 20 20 21 21 20 20 22 25 27 27 28 28 29 30 28 27 26 25 24 22 22 23 25 25 22 18 16 14 13 12 13 13 12 12 13
27 28 28 28 28 27 26 25 25 24 21 20 21 23 24 24 22 21 22 21 19 20 19 20 21 23 24 22 20 21 22 22 22 21 20 20 20 20 19 18 18 20 20 21 22 22 21 21 21 21 21 20 20 20 21 22 22 22 21 23 26 28 28 29 28 28 29 30 28 26 25 25 24 23 23 23 22 20 17 15 14 13 12 14 15 15 15 16
26 27 27 28 28 27 26 25 25 25 23 21 21 23 24 23 22 21 21 20 20 20 20 20 21 22 22 22 21 22 22 23 23 22 22 22 21 21 20 18 19 20 22 22 22 22 22 22 22 22 21 20 20 21 22 23 23 23 23 24 26 28 29 29 29 28 29 30 29 27 27 27 26 25 24 22 20 18 16 15 15 15 15 15 17 17 18 19
26 26 26 28 28 28 27 26 26 26 25 24 23 23 24 24 22 21 21 20 18 18 18 20 21 22 23 22 21 22 23 24 24 24 24 24 23 22 20 20 22 23 24 24 23 23 24 24 24 23 22 21 21 23 24 24 23 23 24 25 26 27 29 31 31 30 30 30 29 29 28 28 27 27 24 22 21 20 18 17 17 17 17 18 19 19 20 21
27 25 25 27 29 28 27 27 27 26 25 26 25 24 25 24 23 23 22 19 18 18 18 19 21 22 24 22 21 22 23 24 24 24 25 25 24 23 22 23 25 26 27 25 25 25 26 26 25 24 22 22 23 24 25 25 23 23 24 26 27 28 30 32 33 32 31 30 30 30 30 29 28 27 26 25 23 22 21 19 20 21 21 22 23 23 23 24
29 27 25 25 28 29 27 29 30 26 25 27 26 26 26 25 25 24 21 18 18 20 20 20 21 22 23 23 23 24 25 24 24 25 26 25 25 25 25 26 27 28 28 27 26 26 27 26 26 25 24 23 24 24 25 25 24 23 24 26 28 29 31 32 34 35 33 32 31 31 31 31 30 29 28 27 26 25 24 23 23 23 23 24 25 25 25 26
30 29 27 25 27 29 30 32 32 27 26 27 27 27 28 28 27 24 20 19 20 21 22 22 22 22 23 23 23 25 27 26 26 26 26 25 25 25 26 26 27 28 28 28 26 25 26 27 27 26 25 25 25 25 26 26 25 24 24 26 28 29 31 32 34 36 36 34 33 33 33 33 32 32 31 30 30 29 28 26 26 24 23 22 23 24 25 27
30 30 29 27 26 28 32 34 33 30 27 28 28 28 29 30 28 22 19 20 22 23 23 24 23 23 23 23 22 24 26 26 26 26 26 26 25 25 24 25 26 27 28 28 27 26 27 29 30 29 28 27 26 26 26 26 25 24 24 27 28 29 31 32 33 36 37 36 35 35 36 35 35 35 34 32 33 33 32 31 29 27 25 24 23 23 25 28
30 30 29 28 27 29 32 35 34 32 30 31 30 30 31 31 25 20 20 22 23 24 25 25 25 24 24 23 23 25 25 26 26 27 27 27 26 25 23 24 26 27 28 29 29 27 27 30 31 30 29 27 26 26 25 25 25 24 25 26 27 29 29 28 30 32 34 36 36 36 37 37 38 38 36 35 34 35 35 34 33 32 30 28 27 27 28 29
31 30 29 29 29 30 32 34 34 34 33 33 33 33 32 28 22 20 22 23 25 26 25 25 25 25 25 25 25 26 26 27 28 28 29 29 28 25 23 23 24 25 26 27 27 27 27 29 30 29 28 27 25 25 25 26 25 24 25 25 24 25 26 25 26 28 30 32 34 36 37 37 37 37 37 36 35 35 36 35 35 34 32 30 30 31 31 31
31 31 30 29 30 31 32 33 33 34 35 35 36 36 31 25 22 23 24 25 26 26 25 25 25 26 26 26 26 26 27 28 29 30 31 31 29 27 25 25 25 26 26 26 26 26 26 27 29 29 28 27 25 25 26 26 24 24 25 23 21 21 23 23 24 26 28 29 31 33 35 36 36 37 37 37 35 34 35 35 35 33 31 29 29 30 32 32
32 32 31 29 29 31 33 34 33 33 34 36 39 36 30 26 25 25 26 27 27 27 26 26 26 26 27 27 26 27 28 28 30 31 32 32 31 30 28 29 29 30 29 28 28 27 27 27 28 29 28 26 25 25 25 25 25 24 24 22 21 21 23 24 24 26 28 28 30 32 32 33 35 35 36 36 36 35 35 35 33 29 27 27 28 29 30 32
33 34 33 30 29 30 34 35 35 33 33 37 38 35 31 29 27 27 28 29 28 28 28 27 27 27 28 28 28 29 29 29 30 31 32 33 32 31 31 31 32 32 31 30 29 28 28 27 28 29 27 25 25 25 24 26 27 26 24 23 23 23 23 24 25 26 27 27 28 30 30 31 31 32 33 33 33 33 33 32 30 26 25 26 27 27 29 31
31 34 35 33 29 30 34 36 36 35 35 36 36 34 32 29 28 29 31 31 31 31 29 29 29 29 29 30 30 31 30 30 31 31 32 33 33 32 32 32 33 33 31 30 28 28 28 26 25 26 25 24 25 25 25 26 27 26 24 24 25 24 25 25 25 26 27 28 28 29 30 30 29 28 28 27 27 27 27 27 27 25 24 24 24 25 26 30
30 32 34 35 32 31 33 36 37 37 36 35 33 32 32 29 29 31 33 33 33 33 32 31 31 31 30 30 31 32 32 31 32 32 32 33 33 32 31 32 33 34 32 30 29 28 27 25 24 23 24 24 24 25 27 28 28 27 24 23 24 25 25 26 26 26 27 27 28 28 28 27 26 24 22 19 19 20 21 22 24 24 23 22 22 23 25 27
29 29 30 33 33 32 33 35 37 38 37 34 32 32 32 30 30 32 34 35 36 35 34 33 32 31 31 32 31 31 32 32 32 32 32 32 33 32 31 31 33 35 33 31 30 28 26 25 24 23 24 24 23 24 26 27 28 28 25 24 25 26 26 25 26 26 25 25 24 24 24 23 23 21 18 15 15 16 17 19 21 22 23 22 22 23 24 25
27 26 25 27 31 33 33 34 35 36 36 34 33 32 33 32 32 34 36 37 37 37 36 35 33 32 32 33 33 32 32 32 32 32 32 33 33 32 31 31 31 34 34 32 31 29 27 26 25 26 27 27 25 26 26 26 27 28 26 26 27 27 27 26 25 25 24 23 22 22 22 22 22 21 19 16 15 15 16 17 19 20 21 22 22 22 23 23
24 22 21 22 26 30 33 33 33 34 35 34 33 33 34 34 34 34 36 37 37 37 37 36 34 33 32 33 34 34 33 32 33 32 31 32 33 33 33 32 31 32 33 33 32 31 30 29 28 28 30 30 28 27 27 27 28 28 28 29 30 29 27 26 25 24 24 24 23 22 22 22 22 22 21 19 17 16 17 17 18 19 19 21 21 21 20 20
21 19 18 19 22 27 31 31 31 32 33 33 33 33 34 35 34 33 34 37 38 38 37 37 36 34 34 34 35 35 34 33 32 32 31 32 32 33 34 34 33 33 33 33 33 33 33 33 32 31 32 33 32 30 30 29 29 29 30 30 30 29 27 26 26 26 26 27 25 23 23 23 22 22 22 20 19 18 18 18 19 20 20 21 21 21 21 21
18 16 16 17 19 22 26 28 28 29 30 31 32 34 34 34 33 32 33 35 37 37 36 37 36 35 35 35 36 35 35 34 33 33 32 32 32 33 34 33 34 34 35 35 35 35 36 35 35 34 34 34 33 32 31 29 29 29 30 30 30 29 29 28 28 29 29 28 26 24 23 22 22 22 21 21 20 19 19 19 20 20 21 21 22 22 22 21
16 15 16 16 16 19 21 23 25 26 28 30 30 32 33 34 33 32 31 33 34 35 35 36 37 37 36 37 37 36 36 36 34 34 34 33 32 32 32 32 31 32 35 38 38 39 39 39 38 37 36 35 35 34 33 31 30 30 31 32 32 32 32 32 32 32 31 30 28 26 25 23 23 23 23 23 22 22 21 21 21 21 21 21 22 22 22 22
16 16 16 15 16 19 18 17 21 24 25 28 30 31 32 33 33 32 31 31 32 33 34 36 38 38 38 38 39 38 37 37 35 35 35 34 33 32 31 29 29 29 31 36 39 39 38 37 38 38 37 37 37 37 37 36 35 33 33 34 35 36 36 36 36 35 34 32 30 28 27 25 25 25 25 25 24 24 25 24 24 24 24 24 24 24 24 25
17 18 17 13 15 22 20 12 13 21 24 25 28 31 32 33 33 32 32 32 32 32 33 35 38 39 39 39 39 39 39 38 37 36 36 36 34 33 31 29 28 28 29 30 34 35 34 35 37 38 38 38 38 39 40 41 40 38 37 37 37 38 40 40 40 39 37 35 33 31 29 28 27 28 28 28 28 28 28 27 27 27 27 28 27 26 25 25
16 18 17 11 14 24 24 12 6 13 21 24 26 28 29 31 31 32 32 32 33 33 33 35 37 40 41 40 40 40 40 39 38 38 38 38 37 36 34 32 31 30 31 31 30 31 31 32 33 34 35 36 38 39 41 43 44 43 43 42 40 40 41 43 44 43 41 38 36 34 32 31 31 31 31 32 31 31 31 30 30 31 31 30 30 29 29 29
16 18 17 10 13 23 27 19 9 6 9 19 27 28 28 28 29 30 30 31 32 33 33 34 36 37 40 41 41 40 40 39 38 38 39 39 39 38 37 36 34 33 33 34 34 32 30 29 29 29 30 31 32 34 38 41 44 45 44 44 43 43 42 43 44 43 41 39 37 37 35 34 33 33 34 34 34 33 33 33 34 34 34 33 33 33 33 33
17 17 17 11 9 18 25 26 18 8 4 10 20 25 27 28 28 27 28 28 30 30 30 32 35 36 37 38 40 40 39 39 39 38 39 39 38 38 37 36 35 34 34 34 35 34 32 29 28 28 28 29 29 29 32 34 37 40 41 39 39 41 41 39 40 40 39 36 35 36 36 35 35 35 35 35 35 35 35 35 36 36 36 36 35 35 36 36
20 18 17 13 7 13 20 25 27 21 11 8 10 13 19 24 25 26 26 26 27 27 26 28 31 34 36 36 37 38 39 39 39 39 39 38 38 37 37 36 36 35 34 34 33 32 31 29 28 27 28 30 31 31 31 31 31 34 35 32 31 33 33 33 34 37 37 36 34 34 35 35 36 36 36 36 36 36 37 37 37 38 38 38 38 39 40 40
Wind_Direction
263 262 262 262 262 261 261 259 258 257 257 257 256 256 255 254 253 253 252 251 251 250 250 249 249 249 249 250 251 251 252 252 252 252 253 253 254 254 254 255 255 254 254 255 256 256 256 255 255 255 255 255 255 255 255 254 255 256 257 257 257 253 250 246 238 233 235 239 237 235 235 235 233 232 234 234 233 233 234 236 239 241 244 248 252 256 260 266
259 259 259 259 259 260 260 260 259 258 258 258 257 257 255 254 253 253 252 252 251 251 251 250 250 250 250 251 252 253 253 253 254 254 254 255 255 256 256 256 256 256 255 255 256 257 257 257 257 257 257 257 256 256 256 255 256 257 259 258 253 248 248 245 234 227 231 235 235 234 234 235 235 234 235 235 234 235 235 236 240 241 244 247 251 256 261 267
256 256 256 256 257 258 259 259 259 259 258 258 258 257 256 255 254 253 252 251 251 251 251 251 251 251 251 252 252 253 254 255 255 255 256 256 257 257 257 257 257 257 257 257 257 257 256 256 257 256 256 256 255 255 255 255 255 255 257 256 248 245 247 244 235 231 236 239 236 234 234 236 238 238 238 237 238 240 239 238 241 243 247 250 254 259 264 271
258 255 255 255 256 257 257 258 258 258 257 257 257 257 257 256 254 254 253 252 251 251 250 250 251 251 251 252 253 254 254 255 255 256 257 257 257 258 258 259 258 258 257 257 257 256 255 255 255 255 254 254 254 253 253 252 252 252 252 248 242 244 247 246 243 241 243 244 239 235 237 239 240 241 241 241 241 243 243 244 246 249 254 258 263 267 271 277
263 258 255 255 255 255 256 257 257 257 256 256 256 257 257 257 256 255 254 253 252 251 250 249 249 250 251 252 254 254 255 255 255 256 256 257 258 259 259 259 259 258 257 255 255 254 253 252 252 252 251 251 251 251 250 250 249 249 245 239 239 243 246 247 246 242 241 242 241 238 240 244 247 247 247 245 243 244 247 250 254 260 267 271 273 274 277 280
265 262 258 256 255 255 255 256 256 257 257 256 256 256 257 257 257 257 256 255 254 252 251 250 250 250 252 253 254 255 256 255 255 255 256 258 259 259 260 259 258 257 255 254 252 251 250 248 248 247 247 248 249 248 247 247 248 246 240 235 237 238 239 243 243 238 237 239 241 242 245 249 253 253 251 248 245 245 248 253 260 270 278 278 276 277 280 283
265 263 261 258 256 256 255 256 256 257 258 258 257 257 257 257 257 258 258 257 256 255 253 252 251 251 252 253 255 256 257 257 256 257 258 259 259 259 259 258 257 255 254 252 250 248 246 244 243 243 243 244 245 244 243 245 246 244 238 233 234 234 233 238 242 241 242 242 242 246 248 249 252 255 253 250 248 248 251 255 262 272 275 273 274 278 280 283
266 263 261 259 258 257 256 256 257 257 258 259 258 258 258 258 258 259 259 259 258 256 255 253 253 252 252 253 255 256 257 258 258 259 260 260 260 260 259 257 256 254 253 250 248 246 244 242 240 239 238 239 240 240 241 244 245 242 236 232 233 232 231 237 246 248 249 249 248 250 250 249 252 254 252 252 252 253 256 258 260 267 270 272 275 278 280 283
268 265 261 259 258 257 256 256 257 258 258 259 259 259 259 259 260 260 260 260 259 258 256 255 253 252 252 254 255 256 257 257 258 259 260 261 261 260 259 257 255 253 251 249 246 243 241 240 238 237 236 236 237 238 241 244 245 241 236 236 236 236 235 240 248 249 250 252 253 254 252 252 251 249 249 251 253 254 255 255 257 266 270 272 275 276 278 283
269 268 265 260 257 256 256 256 256 257 258 259 259 260 260 261 261 262 261 260 259 258 257 255 253 252 252 253 254 255 256 256 257 259 260 261 261 260 259 257 255 253 250 248 244 241 238 237 236 235 235 236 237 238 243 247 248 243 240 241 241 241 241 242 246 250 252 253 254 255 252 250 248 248 248 247 246 246 248 251 259 268 270 271 272 273 277 280
272 270 268 264 258 255 254 254 254 255 256 257 258 260 261 262 262 262 261 260 259 258 257 255 253 252 252 252 253 254 256 256 257 259 260 261 260 259 258 256 254 252 249 246 243 240 239 238 238 237 236 237 238 240 245 249 250 247 244 245 245 245 244 244 246 250 253 253 254 254 251 248 246 246 245 240 238 239 243 251 259 266 267 268 269 270 274 275
279 273 270 267 262 257 253 252 252 253 254 256 257 258 260 261 262 261 260 259 258 257 255 253 252 250 250 250 252 254 254 254 256 258 260 261 261 259 256 255 252 250 247 245 243 242 241 240 239 238 238 238 238 240 244 247 250 249 246 246 247 247 246 245 245 248 251 253 253 253 251 249 246 244 242 236 235 236 239 248 255 260 263 264 265 267 268 270
285 280 274 270 265 260 255 252 250 251 252 254 255 257 259 260 260 260 259 257 256 254 253 252 250 248 248 249 251 252 251 252 254 256 257 258 259 258 254 252 250 248 246 245 244 242 241 239 237 236 237 237 237 238 242 245 247 248 247 246 247 247 246 245 243 244 247 250 251 251 249 248 246 243 241 238 238 238 239 245 250 253 256 258 260 262 264 266
284 282 279 274 269 263 257 253 250 249 250 252 253 255 257 258 258 258 257 255 254 253 251 250 248 246 246 248 249 248 249 250 251 252 254 254 254 255 253 251 249 247 246 245 243 240 238 235 234 233 233 233 234 236 239 241 243 245 246 246 246 246 246 244 242 242 244 247 249 249 249 248 247 245 245 244 245 245 244 245 246 247 250 254 257 260 262 261
283 281 280 277 272 267 261 255 251 249 249 250 251 253 254 255 256 256 255 254 252 251 250 248 246 245 246 246 246 247 247 248 249 249 250 251 251 251 250 249 248 246 245 244 241 240 237 232 229 229 228 229 231 232 235 238 239 241 243 244 243 243 243 242 242 242 243 246 248 250 251 250 249 250 249 247 248 248 245 242 242 243 247 253 257 259 258 256
285 282 279 277 274 270 265 259 253 250 248 249 250 251 252 253 253 254 253 252 252 250 249 247 245 244 244 243 243 246 247 247 247 248 247 248 249 249 249 248 247 246 244 243 242 241 239 234 230 227 225 226 227 229 232 234 236 238 240 241 240 240 241 242 242 242 243 245 247 250 253 253 250 247 247 247 249 250 245 243 244 244 247 252 254 254 253 254
287 285 282 278 275 272 267 262 256 252 250 249 249 250 251 251 252 252 252 252 251 250 248 247 245 243 241 240 242 244 247 247 247 248 248 247 248 249 249 249 249 247 245 244 243 241 239 235 232 229 226 226 226 228 230 232 234 235 237 239 239 238 238 240 242 242 242 244 247 250 253 254 248 242 244 246 250 251 246 244 243 243 245 247 247 247 249 254
286 285 283 280 277 273 270 265 260 255 252 250 250 250 250 251 252 252 252 251 250 249 248 248 246 243 239 238 241 244 247 248 248 248 248 247 248 249 250 250 249 247 246 244 242 240 236 235 233 232 231 230 230 231 232 232 232 233 234 236 238 237 237 238 241 243 243 244 247 249 251 250 245 242 243 246 248 248 245 243 242 241 240 240 242 243 247 256
285 284 282 280 277 274 271 267 263 259 256 253 252 251 251 252 252 252 251 250 249 247 246 246 245 243 239 237 238 241 245 246 246 245 244 245 247 248 249 249 247 245 243 241 240 238 235 235 235 235 236 234 233 233 233 233 233 234 234 234 236 236 236 239 242 245 246 246 246 246 244 241 240 241 242 244 246 244 245 248 246 241 236 235 237 237 247 261
281 282 281 280 277 274 271 268 265 262 259 256 255 253 253 253 252 250 249 248 247 246 246 244 242 240 238 236 234 236 239 242 243 243 243 244 245 247 248 247 246 243 241 240 239 238 235 235 235 235 234 232 231 230 230 232 234 235 234 233 234 235 235 238 242 244 245 242 238 238 235 230 231 235 238 243 246 245 245 247 244 239 235 232 231 233 249 269
276 278 279 279 277 275 271 268 265 263 260 258 256 254 253 252 251 249 247 247 245 245 245 243 239 238 237 236 234 233 236 239 242 242 241 241 243 246 247 246 245 242 240 240 239 238 235 230 229 230 230 230 229 228 230 232 234 235 233 231 232 231 231 234 237 238 237 230 225 229 227 222 225 231 236 242 245 240 234 235 234 234 234 231 230 237 255 279
272 273 274 275 276 275 273 270 266 264 261 258 256 254 253 251 250 248 246 247 246 244 244 242 237 236 235 234 234 234 235 237 239 240 239 238 238 241 244 244 244 243 241 240 238 235 231 226 225 227 228 230 231 231 233 233 233 233 231 230 229 227 226 228 227 227 228 222 216 222 222 218 222 228 233 236 234 221 211 216 223 226 229 231 234 241 259 289
270 270 270 270 271 273 274 273 269 265 262 260 257 255 253 251 250 250 248 249 248 243 243 241 237 235 234 234 235 235 235 236 238 241 241 239 237 236 239 242 243 243 241 239 236 233 230 228 227 226 226 228 230 233 235 234 234 232 230 227 223 222 222 220 216 215 221 220 214 220 221 218 220 224 228 228 223 213 203 209 222 227 230 233 235 241 268 293
267 267 268 268 268 268 270 272 271 267 263 261 259 256 254 252 250 250 248 248 247 243 241 241 238 235 233 233 234 236 238 238 240 243 243 243 241 238 238 240 241 242 239 237 235 233 233 232 230 228 226 226 228 233 236 236 235 233 231 226 220 220 219 215 211 211 218 220 214 218 222 221 218 217 221 221 218 214 210 216 227 234 239 240 238 246 273 284
267 265 265 266 267 266 266 267 269 269 265 262 260 258 255 252 250 250 247 245 246 246 241 240 239 236 234 233 232 236 239 240 239 240 241 243 242 238 237 238 239 241 238 236 235 234 235 234 233 231 228 227 228 230 233 232 231 230 227 223 220 220 219 217 213 212 219 221 218 221 223 225 222 214 216 220 221 220 219 222 229 234 243 250 253 261 271 277
266 265 264 263 264 265 264 264 265 266 265 262 259 257 256 254 252 251 249 244 244 246 242 239 240 238 236 233 230 233 238 238 238 237 237 240 241 240 239 238 237 238 237 236 235 235 236 235 235 234 231 230 229 230 232 231 229 225 221 219 219 220 221 221 217 215 218 221 223 226 225 227 226 218 219 226 228 230 229 226 229 234 245 255 261 268 273 278
266 264 262 262 262 262 262 262 261 261 261 260 258 257 257 256 254 252 251 248 244 243 241 239 240 239 238 234 230 232 235 236 238 236 236 238 239 241 241 240 240 240 239 238 238 237 237 236 236 237 236 234 232 231 231 232 230 223 217 216 217 219 222 224 223 219 219 221 223 226 226 226 227 226 229 234 238 241 241 237 239 242 249 258 265 269 272 277
269 264 261 260 260 260 260 260 259 258 257 257 256 257 257 256 255 253 252 251 247 243 240 238 238 238 238 235 231 230 232 234 235 234 235 236 237 237 238 240 242 241 240 237 235 236 236 236 236 237 237 236 234 232 232 233 231 226 222 220 220 220 221 224 226 223 222 222 221 222 225 226 228 232 235 241 247 248 248 248 249 251 255 260 264 267 269 273
272 267 261 258 258 258 258 258 257 255 255 254 253 255 256 255 254 253 252 251 250 246 239 236 236 235 235 234 229 228 230 233 234 235 236 237 238 237 236 236 237 237 237 235 233 235 236 235 236 235 235 235 234 234 235 234 230 228 227 225 225 224 222 223 225 225 225 224 221 221 224 226 229 233 237 243 249 250 249 250 250 253 259 263 265 265 266 270
274 270 264 258 256 255 255 257 255 252 252 252 251 252 254 254 253 251 250 250 249 248 243 238 235 233 233 231 228 227 229 231 233 235 236 237 237 236 234 235 236 237 236 234 232 234 236 236 236 235 232 232 234 235 237 237 233 230 230 230 230 230 228 224 223 226 227 225 225 224 224 226 227 232 239 244 248 249 249 249 251 256 262 268 270 268 267 268
273 270 266 259 255 252 252 253 253 250 250 251 251 250 251 251 250 248 248 247 246 246 245 241 236 234 233 229 226 226 227 227 230 233 235 236 236 236 235 234 236 239 240 238 234 234 239 240 238 236 233 232 234 236 239 241 239 235 233 234 233 234 235 230 225 226 226 225 226 227 227 228 227 228 236 243 248 249 248 249 253 260 266 268 268 266 265 265
271 269 266 261 256 252 248 249 250 248 248 250 249 248 249 249 247 247 248 247 245 244 244 243 240 238 236 232 227 227 228 227 228 232 234 235 235 235 235 235 236 239 241 241 236 233 238 241 240 238 236 234 235 237 239 242 243 241 237 235 234 234 236 235 229 227 227 226 226 228 230 232 231 230 232 238 244 246 247 248 252 260 268 269 265 262 260 259
269 267 264 260 257 251 246 246 248 246 246 247 247 246 247 247 246 246 247 246 245 243 242 242 242 241 239 236 233 232 232 230 228 229 231 233 233 232 230 231 235 235 236 238 234 230 231 235 238 238 236 235 236 238 241 243 244 242 237 232 231 232 234 236 233 230 230 230 230 231 232 235 236 237 236 236 240 243 245 248 251 258 265 264 263 262 258 258
268 266 263 258 254 251 248 246 245 244 243 245 245 245 245 246 247 245 243 243 243 241 240 240 241 242 242 240 238 237 237 236 233 229 229 229 229 228 227 229 233 235 234 236 236 233 229 230 234 236 235 235 236 238 241 243 243 240 233 229 228 230 233 235 236 235 235 236 236 237 238 239 240 242 243 242 242 244 248 250 252 259 263 259 257 259 260 260
270 267 262 257 253 250 250 249 245 243 242 244 244 244 244 247 247 242 239 239 240 241 240 240 240 241 242 241 240 241 240 238 238 235 233 232 228 225 224 226 231 236 237 238 239 237 233 232 233 233 233 233 234 238 239 240 242 240 236 232 230 231 233 235 237 237 238 239 240 241 243 245 246 247 249 249 248 250 252 254 256 261 263 257 254 255 257 259
272 268 263 258 253 250 250 251 247 243 241 243 244 243 244 245 243 240 237 238 239 241 242 241 241 240 241 240 239 239 239 238 239 239 237 236 232 226 222 221 225 230 234 236 237 236 233 232 232 232 233 232 232 234 236 237 240 242 241 238 236 235 233 233 236 238 239 241 243 244 246 249 251 253 255 256 257 257 259 262 264 265 260 254 252 252 253 256
271 269 265 260 254 249 248 249 248 243 240 241 243 244 242 239 238 237 237 237 238 240 241 241 241 241 240 240 238 237 238 236 237 238 239 238 235 229 222 220 224 228 231 233 234 233 231 229 230 232 233 236 236 234 234 237 239 240 242 243 242 239 235 233 233 236 239 242 245 247 249 252 254 257 259 261 263 263 265 266 266 263 254 248 247 247 251 254
269 268 265 260 253 248 246 246 246 244 240 239 242 243 240 236 235 236 237 237 237 238 239 240 241 240 239 239 237 236 236 234 234 235 237 239 237 233 226 223 227 230 231 233 234 233 232 228 228 229 230 234 239 236 234 237 240 240 242 245 245 243 240 237 235 237 240 243 246 249 252 255 257 260 262 264 265 265 264 262 260 256 249 243 242 243 249 250
270 266 262 257 252 247 244 243 243 242 240 238 240 241 239 235 233 234 236 236 236 236 237 238 240 241 240 238 237 236 234 232 232 232 234 237 237 236 231 227 229 230 230 231 231 230 230 226 225 228 228 231 236 236 234 236 242 244 245 246 246 244 242 240 238 238 241 244 247 249 252 254 257 261 263 264 264 262 259 255 253 251 246 242 240 242 247 246
275 266 260 254 248 244 242 241 241 240 240 239 238 239 238 234 231 233 234 234 235 235 235 236 239 241 241 240 237 236 234 232 232 232 233 235 236 237 235 232 232 231 229 228 228 228 229 225 222 225 228 230 233 235 235 237 243 247 247 246 246 243 243 242 240 240 241 243 247 249 252 255 257 259 262 263 260 256 253 249 247 247 244 241 240 240 242 244
279 270 261 253 246 240 239 239 239 239 239 239 237 236 237 233 230 231 232 232 233 234 234 235 237 239 240 240 238 236 234 233 234 233 233 234 234 235 236 235 234 234 231 229 229 230 229 226 220 220 226 229 230 233 234 235 241 246 245 244 244 242 241 241 241 243 245 246 250 254 256 257 257 257 260 261 257 251 247 245 244 245 245 243 242 241 241 242
282 273 265 256 246 238 236 236 237 237 237 237 235 234 234 233 230 229 231 232 232 232 233 234 235 236 237 239 239 236 234 233 234 235 234 235 234 232 234 235 235 235 233 231 231 231 230 226 219 217 223 226 227 230 232 232 236 242 243 241 241 239 239 240 241 245 249 251 253 256 257 257 259 261 265 265 259 250 244 242 243 244 246 245 244 242 241 242
284 274 268 260 248 238 233 233 234 234 234 234 233 232 232 231 230 229 231 233 232 232 232 232 233 234 234 235 236 236 236 234 234 236 237 238 237 234 234 236 236 235 234 231 230 229 229 227 221 218 222 224 224 227 230 230 232 237 241 242 240 237 238 240 242 244 249 251 253 255 257 260 262 266 267 265 260 253 246 241 240 241 244 245 246 244 243 244
286 276 270 264 252 239 232 230 231 233 232 232 231 230 230 230 229 229 230 233 233 232 232 232 232 232 232 233 233 235 236 238 238 237 238 240 241 239 237 237 236 235 234 232 231 230 230 229 226 223 223 225 225 226 229 231 231 233 238 240 238 236 237 239 242 244 247 250 252 254 258 262 264 265 264 262 260 257 252 248 245 244 244 244 244 245 244 245
293 282 276 270 256 240 232 230 230 231 232 231 231 230 229 229 228 227 229 233 234 233 232 232 232 231 230 231 232 233 235 238 240 240 239 238 240 243 243 241 239 237 236 234 232 233 233 233 233 231 230 231 233 233 234 236 235 234 235 236 236 238 241 243 245 247 248 250 252 254 257 260 261 260 260 259 260 259 257 256 254 250 249 249 248 248 248 249
304 292 285 276 252 231 227 230 231 232 232 230 230 230 230 230 228 226 228 232 235 235 231 230 231 231 229 229 231 233 235 238 240 242 243 241 239 241 245 246 245 243 241 238 235 234 235 236 238 239 238 239 239 237 236 237 238 237 236 237 240 242 245 247 247 247 247 248 249 251 252 255 256 257 257 257 258 258 258 258 257 254 254 256 258 258 258 258
313 306 298 281 244 219 218 229 231 232 233 232 231 230 230 230 228 226 227 230 234 235 231 229 230 231 230 230 231 232 234 237 239 242 245 246 243 243 246 248 247 247 247 243 237 234 234 235 238 241 242 242 241 238 235 234 235 235 234 236 239 242 243 244 245 245 245 245 245 247 250 254 256 256 256 258 259 260 260 260 259 258 259 261 263 264 263 262
317 318 311 286 236 214 213 220 227 229 231 230 231 232 230 229 228 226 226 229 232 234 232 229 229 231 232 232 232 233 234 236 239 241 244 247 248 247 248 250 248 247 249 248 242 238 236 236 238 241 243 245 245 243 239 236 234 233 233 234 237 240 241 241 241 241 242 241 240 243 248 252 254 254 255 257 260 263 263 261 260 260 261 263 264 263 262 262
323 327 324 292 233 217 216 210 196 219 225 223 225 229 228 228 228 226 226 228 230 233 233 230 229 231 233 234 235 236 237 238 240 242 244 247 250 250 250 249 248 247 248 251 251 248 244 242 242 244 246 247 247 244 240 237 235 234 234 234 234 237 239 238 237 237 237 237 237 239 244 250 252 252 252 254 258 262 264 263 262 262 262 263 262 261 260 260
335 336 335 306 238 223 222 215 180 160 205 218 221 225 227 228 229 228 228 229 229 231 233 231 229 230 233 236 238 238 240 241 242 243 246 248 251 253 254 252 250 248 248 250 254 256 255 254 252 253 254 255 252 249 246 241 238 237 237 237 236 238 239 236 234 233 233 234 236 238 243 248 251 253 254 255 258 260 262 263 264 264 265 265 264 263 263 263
353 348 346 329 258 232 229 226 218 197 160 194 211 222 227 228 227 224 222 223 224 227 231 231 231 231 232 236 240 242 242 243 244 245 248 250 252 254 256 256 255 253 251 250 252 256 258 259 259 257 257 256 254 254 252 247 241 238 240 241 239 239 240 238 235 235 234 234 236 240 245 249 253 255 256 257 259 260 261 262 263 263 265 265 265 265 264 265
6 1 358 349 296 246 236 233 233 235 224 188 189 206 217 222 223 219 217 217 219 222 227 230 232 233 233 235 239 242 244 244 245 246 247 250 253 255 257 258 259 259 258 256 255 256 258 259 259 257 255 253 251 250 250 248 244 242 243 246 245 243 242 241 240 239 239 239 240 243 247 251 254 256 257 258 260 261 261 262 262 263 264 264 264 264 265 266
Height
5738 5738 5738 5739 5739 5739 5740 5740 5740 5741 5741 5741 5741 5742 5742 5743 5743 5743 5744 5744 5745 5745 5746 5747 5748 5748 5749 5750 5751 5752 5753 5754 5755 5755 5756 5757 5758 5759 5760 5761 5762 5763 5764 5764 5766 5767 5768 5769 5771 5772 5772 5773 5775 5776 5777 5779 5780 5781 5782 5783 5784 5785 5785 5787 5787 5787 5787 5788 5788 5789 5791 5792 5794 5795 5796 5796 5796 5797 5798 5799 5799 5800 5801 5801 5801 5801 5802 5802
5735 5736 5736 5736 5737 5737 5737 5738 5738 5739 5739 5739 5739 5740 5740 5740 5741 5741 5741 5742 5743 5743 5744 5744 5745 5746 5746 5747 5748 5749 5750 5751 5752 5752 5753 5754 5755 5756 5758 5758 5759 5760 5761 5762 5763 5765 5766 5767 5768 5769 5770 5771 5772 5774 5775 5776 5778 5779 5780 5782 5782 5782 5783 5784 5784 5784 5784 5785 5786 5787 5788 5790 5792 5793 5794 5795 5794 5795 5796 5797 5797 5798 5799 5799 5799 5800 5800 5800
5732 5733 5733 5734 5734 5735 5735 5735 5736 5736 5737 5737 5737 5738 5738 5738 5739 5739 5739 5740 5740 5741 5742 5742 5743 5743 5744 5745 5746 5746 5747 5748 5749 5749 5750 5751 5752 5753 5755 5755 5756 5758 5759 5759 5761 5762 5764 5765 5766 5767 5768 5769 5770 5771 5772 5774 5775 5776 5778 5779 5780 5780 5780 5781 5782 5782 5782 5783 5783 5785 5786 5788 5790 5791 5792 5794 5794 5794 5794 5794 5795 5796 5797 5798 5798 5799 5799 5799
5729 5730 5730 5731 5731 5732 5732 5733 5733 5734 5734 5735 5735 5735 5735 5736 5736 5736 5737 5737 5738 5739 5739 5740 5740 5741 5741 5742 5743 5744 5745 5745 5746 5747 5748 5748 5749 5750 5752 5753 5754 5755 5756 5757 5758 5759 5761 5762 5763 5764 5765 5766 5768 5769 5770 5771 5772 5774 5776 5777 5777 5778 5778 5779 5780 5780 5781 5781 5781 5782 5784 5786 5788 5790 5791 5792 5793 5793 5792 5792 5794 5795 5796 5797 5798 5798 5798 5798
5726 5727 5727 5728 5728 5729 5730 5730 5731 5731 5732 5732 5732 5733 5733 5733 5734 5734 5734 5735 5735 5736 5737 5737 5738 5738 5739 5740 5741 5741 5742 5742 5743 5744 5745 5746 5747 5748 5749 5750 5751 5752 5753 5754 5755 5756 5758 5759 5760 5761 5763 5764 5765 5766 5767 5769 5770 5771 5773 5775 5775 5776 5777 5776 5777 5778 5779 5779 5780 5781 5783 5785 5787 5788 5789 5790 5790 5791 5791 5792 5793 5795 5796 5797 5797 5796 5796 5796
5723 5724 5724 5725 5725 5726 5727 5727 5728 5728 5729 5729 5730 5730 5730 5730 5731 5731 5731 5732 5733 5733 5734 5735 5735 5736 5737 5737 5738 5739 5739 5740 5741 5741 5742 5743 5744 5745 5746 5747 5748 5749 5750 5751 5752 5753 5754 5756 5757 5758 5760 5761 5762 5763 5765 5766 5767 5768 5771 5772 5773 5775 5775 5774 5775 5776 5777 5778 5779 5780 5782 5784 5786 5787 5787 5788 5788 5789 5790 5792 5793 5794 5794 5795 5794 5794 5794 5794
5720 5721 5721 5722 5722 5723 5724 5724 5725 5725 5726 5726 5727 5727 5727 5728 5728 5728 5729 5729 5730 5730 5731 5732 5733 5733 5734 5735 5736 5736 5736 5737 5738 5739 5740 5741 5741 5742 5743 5744 5745 5745 5747 5748 5749 5750 5751 5753 5754 5755 5757 5758 5759 5760 5761 5762 5763 5766 5769 5770 5771 5772 5772 5771 5772 5774 5775 5777 5778 5779 5780 5782 5784 5785 5785 5785 5786 5787 5789 5791 5792 5792 5792 5792 5793 5793 5793 5792
5718 5718 5718 5719 5719 5720 5720 5721 5722 5722 5723 5723 5723 5724 5724 5724 5725 5725 5726 5726 5727 5727 5728 5729 5730 5730 5731 5732 5733 5733 5733 5734 5735 5736 5737 5738 5738 5739 5740 5741 5742 5742 5744 5745 5746 5747 5749 5750 5751 5752 5753 5754 5756 5757 5758 5759 5761 5764 5766 5767 5768 5769 5770 5770 5771 5772 5774 5775 5777 5778 5779 5781 5782 5783 5783 5783 5785 5787 5788 5789 5790 5790 5790 5791 5791 5791 5791 5790
5715 5715 5715 5715 5716 5717 5717 5718 5719 5719 5719 5720 5720 5721 5721 5721 5722 5722 5723 5723 5724 5724 5725 5726 5727 5728 5728 5729 5730 5730 5731 5731 5732 5733 5734 5735 5735 5736 5737 5738 5739 5740 5741 5742 5743 5744 5745 5747 5748 5749 5749 5751 5753 5754 5755 5756 5759 5762 5763 5764 5765 5767 5768 5768 5769 5770 5772 5773 5774 5776 5778 5780 5780 5781 5781 5783 5784 5786 5786 5787 5788 5788 5789 5790 5789 5789 5789 5788
5712 5712 5712 5712 5713 5713 5714 5715 5715 5716 5716 5717 5717 5718 5718 5718 5719 5719 5720 5720 5721 5722 5722 5723 5724 5725 5726 5726 5727 5727 5728 5729 5729 5730 5731 5732 5733 5733 5734 5735 5736 5736 5737 5739 5740 5741 5742 5743 5744 5745 5747 5748 5750 5751 5753 5754 5756 5759 5760 5761 5763 5765 5766 5767 5768 5768 5770 5771 5772 5774 5777 5778 5778 5779 5780 5782 5783 5784 5784 5785 5786 5786 5787 5788 5788 5787 5787 5787
5710 5710 5709 5709 5710 5710 5711 5712 5712 5713 5713 5714 5714 5715 5715 5715 5716 5716 5717 5717 5718 5719 5719 5720 5721 5722 5723 5724 5724 5725 5725 5726 5727 5728 5728 5729 5730 5730 5731 5732 5732 5733 5734 5735 5736 5737 5738 5740 5741 5743 5744 5746 5748 5749 5751 5752 5754 5756 5758 5759 5761 5763 5764 5765 5766 5766 5767 5768 5770 5772 5774 5775 5776 5778 5778 5780 5781 5782 5782 5783 5784 5785 5785 5786 5785 5785 5785 5785
5707 5707 5707 5707 5707 5707 5708 5708 5709 5709 5710 5711 5711 5712 5712 5712 5713 5713 5714 5715 5715 5716 5717 5718 5719 5720 5721 5721 5722 5723 5723 5723 5725 5726 5726 5726 5727 5728 5728 5729 5730 5730 5731 5732 5733 5734 5736 5737 5739 5740 5742 5744 5745 5747 5749 5750 5752 5753 5756 5757 5759 5761 5762 5763 5764 5764 5765 5766 5768 5770 5771 5772 5774 5776 5776 5777 5778 5779 5781 5781 5782 5783 5783 5783 5783 5783 5783 5784
5705 5705 5704 5704 5704 5704 5704 5705 5706 5706 5707 5708 5708 5709 5709 5710 5710 5711 5711 5712 5713 5713 5714 5715 5716 5717 5718 5719 5719 5720 5720 5721 5723 5723 5723 5724 5725 5725 5726 5726 5727 5727 5728 5729 5730 5732 5733 5735 5737 5738 5740 5742 5743 5745 5746 5748 5750 5751 5753 5755 5756 5758 5760 5761 5762 5762 5763 5764 5765 5767 5768 5770 5772 5773 5773 5774 5776 5777 5779 5779 5780 5781 5781 5781 5781 5781 5782 5782
5703 5702 5702 5701 5701 5701 5701 5702 5703 5703 5704 5705 5705 5706 5707 5707 5707 5708 5709 5709 5710 5711 5712 5713 5714 5715 5716 5716 5717 5717 5718 5719 5720 5721 5721 5722 5722 5723 5723 5723 5724 5725 5725 5727 5728 5729 5731 5733 5734 5736 5738 5739 5741 5743 5744 5746 5747 5749 5751 5753 5754 5755 5757 5758 5759 5760 5761 5761 5763 5764 5765 5768 5770 5770 5770 5772 5773 5774 5776 5777 5778 5779 5779 5779 5779 5779 5780 5780
5701 5700 5700 5699 5699 5699 5699 5699 5700 5700 5701 5702 5703 5703 5704 5704 5705 5705 5706 5707 5708 5708 5709 5710 5711 5712 5713 5714 5714 5714 5715 5717 5718 5718 5719 5720 5720 5720 5721 5721 5722 5722 5723 5724 5726 5727 5728 5730 5732 5733 5735 5737 5738 5740 5741 5743 5745 5746 5748 5750 5751 5752 5753 5754 5755 5757 5758 5759 5759 5761 5763 5766 5767 5768 5768 5769 5769 5771 5774 5775 5776 5776 5776 5776 5777 5777 5778 5778
5699 5698 5698 5697 5697 5696 5696 5696 5697 5698 5698 5699 5700 5701 5701 5702 5702 5703 5703 5704 5705 5706 5707 5708 5708 5709 5710 5711 5712 5712 5713 5715 5716 5716 5717 5718 5718 5718 5719 5719 5720 5720 5721 5722 5723 5725 5726 5728 5729 5731 5733 5734 5735 5737 5739 5740 5742 5744 5745 5746 5748 5749 5750 5751 5753 5754 5755 5756 5757 5758 5761 5763 5765 5765 5765 5765 5766 5769 5772 5772 5773 5774 5774 5774 5775 5775 5776 5776
5697 5696 5696 5695 5695 5694 5694 5694 5695 5695 5696 5696 5697 5698 5698 5699 5700 5700 5701 5702 5703 5704 5704 5705 5706 5707 5707 5708 5709 5710 5711 5712 5714 5714 5715 5716 5716 5716 5717 5717 5718 5719 5719 5720 5721 5723 5724 5726 5727 5728 5730 5731 5733 5734 5736 5738 5739 5741 5742 5743 5744 5746 5747 5748 5750 5751 5752 5753 5755 5756 5758 5760 5762 5762 5762 5762 5763 5767 5769 5769 5770 5771 5772 5772 5773 5773 5774 5774
5695 5694 5694 5693 5693 5692 5692 5692 5693 5693 5693 5694 5694 5695 5696 5696 5697 5698 5699 5699 5700 5701 5702 5702 5703 5704 5705 5706 5707 5708 5709 5710 5711 5712 5713 5713 5714 5714 5715 5715 5716 5717 5718 5719 5720 5721 5722 5723 5725 5726 5728 5729 5731 5732 5734 5735 5737 5737 5738 5740 5741 5743 5745 5745 5746 5747 5749 5751 5753 5754 5756 5757 5758 5759 5760 5760 5762 5765 5766 5767 5768 5769 5770 5770 5770 5771 5772 5772
5693 5692 5692 5691 5691 5690 5690 5690 5690 5691 5691 5691 5692 5693 5693 5694 5695 5695 5696 5696 5697 5698 5699 5700 5701 5702 5703 5704 5705 5706 5707 5708 5709 5710 5710 5711 5712 5712 5713 5714 5715 5715 5716 5717 5718 5719 5720 5721 5723 5725 5726 5727 5729 5730 5731 5732 5733 5734 5736 5737 5739 5740 5742 5742 5743 5745 5747 5749 5751 5752 5753 5754 5755 5757 5758 5758 5760 5763 5764 5765 5766 5767 5767 5768 5768 5769 5770 5771
5691 5690 5690 5689 5689 5688 5688 5688 5688 5688 5689 5689 5690 5690 5691 5691 5692 5692 5693 5693 5694 5695 5696 5697 5698 5699 5700 5702 5703 5704 5704 5705 5706 5707 5708 5709 5710 5710 5711 5712 5713 5714 5714 5715 5716 5717 5719 5720 5722 5723 5724 5725 5726 5727 5728 5729 5730 5732 5733 5735 5736 5738 5739 5740 5741 5743 5745 5747 5748 5750 5751 5751 5753 5754 5756 5756 5759 5761 5763 5764 5764 5765 5765 5765 5766 5767 5768 5769
5689 5688 5688 5687 5687 5686 5686 5686 5686 5686 5687 5687 5687 5688 5688 5689 5689 5689 5690 5691 5691 5693 5694 5694 5696 5697 5698 5700 5701 5702 5702 5703 5704 5705 5706 5707 5708 5708 5709 5710 5711 5712 5712 5713 5715 5716 5717 5718 5719 5720 5721 5722 5723 5724 5725 5726 5728 5729 5731 5733 5734 5736 5737 5738 5739 5741 5743 5744 5746 5747 5748 5749 5751 5752 5754 5756 5758 5760 5761 5761 5762 5762 5763 5763 5764 5765 5766 5768
5686 5686 5685 5685 5685 5684 5684 5684 5684 5684 5684 5685 5685 5685 5686 5686 5686 5686 5688 5688 5689 5691 5691 5692 5693 5694 5695 5697 5698 5699 5700 5701 5702 5703 5704 5705 5706 5706 5707 5708 5709 5710 5711 5712 5713 5714 5715 5715 5716 5717 5718 5720 5721 5722 5723 5724 5726 5727 5729 5731 5732 5734 5735 5736 5738 5740 5740 5742 5744 5746 5747 5748 5749 5751 5753 5754 5756 5757 5758 5758 5759 5760 5761 5762 5763 5764 5765 5767
5683 5683 5683 5683 5683 5682 5682 5682 5682 5682 5682 5683 5683 5683 5683 5683 5683 5684 5686 5686 5687 5688 5689 5690 5691 5692 5693 5695 5696 5697 5698 5698 5700 5701 5702 5703 5704 5705 5706 5707 5707 5708 5710 5711 5711 5712 5712 5713 5714 5715 5717 5718 5720 5721 5722 5723 5724 5726 5728 5729 5730 5732 5733 5735 5737 5738 5739 5741 5743 5744 5745 5746 5748 5750 5751 5752 5753 5754 5756 5756 5757 5758 5759 5760 5761 5762 5764 5765
5680 5680 5680 5680 5680 5680 5680 5680 5680 5680 5680 5680 5680 5680 5680 5680 5681 5682 5683 5684 5684 5686 5687 5687 5688 5689 5691 5692 5694 5695 5696 5697 5698 5699 5699 5700 5702 5703 5704 5705 5706 5707 5708 5709 5709 5710 5710 5711 5712 5714 5715 5717 5718 5719 5720 5722 5723 5725 5726 5728 5729 5730 5732 5733 5735 5737 5738 5739 5741 5742 5743 5745 5747 5749 5750 5750 5752 5753 5754 5755 5756 5757 5757 5758 5759 5761 5762 5763
5677 5677 5677 5677 5677 5677 5677 5677 5677 5678 5678 5678 5678 5678 5677 5677 5679 5680 5681 5682 5682 5683 5685 5685 5686 5687 5688 5690 5692 5692 5693 5695 5696 5697 5697 5698 5699 5701 5702 5703 5704 5706 5706 5707 5707 5708 5708 5710 5711 5712 5714 5715 5716 5717 5719 5720 5722 5723 5725 5726 5727 5729 5730 5732 5734 5736 5736 5738 5739 5741 5742 5743 5745 5747 5748 5749 5750 5751 5752 5753 5754 5755 5755 5756 5758 5759 5760 5762
5673 5674 5674 5674 5674 5674 5674 5675 5675 5675 5676 5675 5675 5675 5675 5675 5677 5677 5678 5680 5680 5681 5682 5683 5683 5685 5687 5689 5690 5690 5691 5692 5693 5695 5696 5696 5697 5699 5700 5701 5703 5703 5704 5705 5705 5706 5707 5709 5710 5711 5712 5713 5714 5716 5717 5719 5720 5722 5724 5725 5725 5727 5728 5730 5732 5734 5735 5736 5737 5739 5740 5741 5742 5744 5746 5746 5747 5749 5750 5751 5752 5753 5754 5755 5756 5757 5758 5760
5670 5670 5670 5670 5670 5671 5671 5672 5672 5672 5673 5673 5672 5672 5672 5673 5674 5675 5675 5677 5678 5678 5679 5680 5681 5682 5684 5686 5687 5688 5689 5690 5691 5693 5694 5695 5696 5697 5698 5699 5701 5701 5702 5703 5704 5705 5706 5707 5708 5709 5711 5712 5713 5715 5716 5717 5719 5721 5722 5722 5723 5724 5726 5728 5730 5732 5734 5735 5735 5737 5739 5740 5741 5742 5743 5744 5745 5746 5748 5749 5750 5751 5753 5754 5755 5756 5757 5758
5666 5667 5667 5667 5667 5667 5668 5668 5669 5669 5670 5670 5670 5670 5670 5670 5672 5673 5673 5674 5675 5676 5677 5678 5679 5680 5681 5683 5685 5686 5687 5688 5689 5690 5691 5693 5693 5694 5696 5697 5698 5699 5700 5701 5702 5703 5704 5705 5707 5708 5709 5711 5712 5713 5714 5716 5717 5719 5720 5721 5721 5723 5724 5727 5728 5730 5731 5733 5734 5735 5736 5738 5739 5740 5741 5742 5743 5744 5745 5746 5748 5749 5751 5752 5753 5754 5755 5756
5662 5663 5664 5663 5663 5664 5664 5665 5665 5666 5667 5667 5667 5667 5667 5668 5669 5670 5671 5672 5673 5673 5674 5675 5676 5677 5679 5681 5682 5683 5684 5685 5686 5688 5689 5690 5691 5693 5694 5695 5696 5696 5698 5699 5700 5701 5702 5703 5705 5706 5708 5709 5710 5711 5712 5714 5716 5717 5718 5719 5720 5721 5722 5724 5726 5727 5729 5730 5732 5733 5734 5736 5737 5738 5739 5740 5741 5742 5743 5745 5746 5748 5749 5750 5751 5752 5753 5754
5659 5659 5660 5660 5660 5660 5661 5661 5661 5662 5663 5663 5664 5665 5664 5665 5666 5667 5668 5670 5671 5671 5671 5672 5674 5675 5676 5678 5680 5680 5682 5683 5684 5685 5687 5688 5689 5691 5691 5692 5693 5694 5695 5697 5698 5699 5700 5701 5703 5704 5706 5707 5708 5709 5710 5711 5713 5715 5716 5717 5718 5719 5720 5722 5724 5725 5726 5728 5729 5731 5732 5734 5735 5736 5737 5737 5739 5740 5741 5743 5745 5746 5747 5748 5749 5750 5751 5752
5654 5655 5656 5656 5656 5656 5658 5656 5656 5659 5660 5660 5661 5661 5661 5662 5663 5664 5666 5668 5669 5668 5669 5670 5671 5672 5674 5676 5677 5678 5679 5680 5682 5683 5684 5686 5687 5688 5689 5690 5691 5692 5693 5695 5697 5697 5698 5700 5701 5702 5704 5705 5706 5707 5708 5710 5711 5713 5714 5715 5716 5717 5717 5719 5721 5723 5724 5725 5727 5728 5730 5731 5733 5734 5734 5735 5737 5738 5740 5741 5743 5744 5745 5746 5747 5748 5749 5749
5650 5650 5651 5652 5652 5653 5653 5651 5652 5655 5656 5656 5657 5658 5658 5658 5659 5662 5665 5666 5666 5666 5667 5668 5669 5670 5671 5673 5674 5675 5676 5677 5679 5680 5681 5683 5684 5686 5687 5688 5689 5690 5692 5694 5696 5697 5697 5698 5699 5700 5702 5703 5704 5705 5706 5707 5709 5711 5713 5713 5714 5715 5715 5716 5718 5720 5721 5723 5725 5726 5728 5729 5731 5732 5733 5734 5735 5736 5738 5739 5740 5741 5743 5744 5745 5746 5746 5746
5645 5645 5646 5647 5648 5648 5647 5647 5648 5651 5652 5652 5653 5654 5654 5654 5657 5661 5663 5663 5663 5663 5664 5665 5666 5667 5669 5671 5672 5673 5674 5675 5676 5678 5678 5680 5682 5683 5685 5686 5687 5688 5689 5690 5692 5694 5695 5696 5696 5698 5700 5701 5702 5703 5705 5706 5707 5709 5710 5711 5712 5712 5713 5714 5715 5717 5719 5721 5723 5724 5725 5727 5728 5729 5731 5733 5734 5734 5735 5737 5738 5740 5741 5742 5742 5743 5743 5744
5640 5640 5641 5642 5643 5643 5641 5642 5644 5647 5648 5648 5649 5650 5649 5651 5656 5660 5660 5659 5659 5660 5661 5662 5664 5665 5666 5668 5669 5670 5672 5673 5674 5675 5676 5677 5679 5680 5682 5683 5684 5685 5687 5687 5689 5691 5693 5693 5694 5696 5697 5699 5700 5702 5703 5704 5705 5706 5707 5708 5709 5710 5711 5712 5713 5715 5716 5718 5720 5721 5722 5723 5724 5726 5728 5731 5732 5732 5733 5735 5736 5737 5739 5740 5740 5741 5741 5741
5635 5635 5636 5637 5638 5638 5637 5638 5640 5642 5643 5644 5644 5645 5646 5650 5654 5656 5656 5655 5655 5656 5658 5660 5661 5662 5663 5665 5666 5668 5669 5670 5671 5672 5673 5674 5676 5678 5680 5682 5682 5683 5684 5685 5686 5688 5690 5691 5692 5694 5695 5697 5699 5699 5701 5701 5702 5703 5704 5705 5706 5707 5709 5710 5711 5712 5714 5715 5716 5717 5719 5719 5721 5723 5725 5726 5729 5730 5731 5732 5733 5734 5735 5736 5737 5738 5739 5739
5630 5630 5631 5632 5633 5633 5633 5634 5636 5638 5639 5639 5639 5640 5644 5649 5651 5651 5652 5652 5652 5653 5655 5656 5658 5659 5660 5662 5664 5664 5666 5667 5668 5669 5671 5672 5674 5676 5678 5679 5680 5680 5682 5683 5684 5686 5687 5689 5690 5691 5693 5694 5696 5697 5698 5699 5700 5700 5701 5703 5704 5706 5707 5708 5709 5709 5710 5712 5713 5714 5716 5717 5718 5720 5721 5723 5725 5727 5728 5728 5730 5731 5732 5733 5734 5735 5735 5735
5625 5625 5626 5627 5628 5629 5629 5629 5630 5632 5634 5634 5633 5637 5642 5646 5647 5647 5648 5648 5649 5650 5652 5653 5654 5656 5657 5659 5660 5661 5662 5664 5665 5667 5668 5669 5671 5673 5674 5675 5676 5677 5678 5680 5681 5683 5684 5686 5687 5688 5690 5692 5693 5694 5695 5696 5697 5698 5699 5701 5703 5703 5704 5705 5706 5707 5708 5709 5710 5711 5713 5714 5716 5717 5718 5720 5721 5723 5724 5725 5726 5727 5728 5729 5730 5731 5732 5732
5620 5620 5620 5622 5623 5624 5623 5624 5625 5627 5629 5629 5629 5634 5638 5641 5643 5644 5644 5645 5646 5647 5648 5650 5651 5652 5654 5655 5657 5658 5659 5661 5662 5664 5665 5666 5668 5670 5672 5672 5674 5675 5676 5677 5679 5680 5682 5683 5684 5685 5688 5689 5690 5691 5693 5693 5694 5695 5697 5699 5700 5701 5702 5703 5704 5705 5706 5707 5708 5709 5711 5712 5713 5714 5715 5717 5718 5719 5721 5721 5722 5723 5725 5726 5727 5728 5729 5729
5615 5614 5614 5616 5618 5618 5618 5619 5620 5621 5623 5624 5626 5630 5634 5637 5639 5640 5640 5641 5642 5643 5645 5647 5647 5648 5650 5652 5654 5655 5656 5658 5659 5661 5663 5663 5665 5667 5669 5670 5671 5672 5674 5675 5676 5677 5679 5680 5682 5683 5685 5686 5687 5688 5690 5691 5691 5693 5695 5696 5697 5698 5699 5700 5702 5703 5704 5705 5706 5707 5708 5710 5711 5712 5713 5715 5715 5716 5716 5718 5719 5720 5721 5722 5724 5725 5726 5726
5609 5608 5608 5609 5611 5612 5612 5613 5614 5615 5617 5620 5624 5627 5629 5633 5635 5635 5635 5636 5637 5639 5641 5643 5644 5645 5647 5648 5650 5651 5653 5655 5656 5658 5659 5660 5662 5664 5666 5668 5669 5669 5671 5672 5673 5675 5676 5678 5679 5680 5682 5683 5684 5686 5687 5688 5689 5691 5692 5693 5694 5696 5697 5698 5699 5700 5701 5703 5704 5705 5706 5708 5709 5710 5711 5712 5712 5712 5713 5714 5715 5716 5718 5719 5721 5722 5722 5723
5602 5602 5601 5602 5604 5605 5606 5607 5608 5610 5613 5617 5620 5622 5624 5628 5629 5630 5630 5631 5632 5635 5637 5639 5640 5642 5644 5645 5647 5649 5650 5652 5653 5655 5657 5658 5659 5661 5663 5665 5666 5667 5669 5670 5671 5672 5674 5675 5677 5678 5679 5680 5681 5683 5684 5686 5686 5688 5690 5691 5691 5693 5694 5695 5696 5697 5699 5701 5702 5703 5704 5706 5707 5707 5708 5709 5709 5710 5710 5711 5713 5714 5715 5716 5717 5718 5719 5720
5596 5596 5596 5596 5597 5599 5600 5602 5603 5606 5609 5612 5616 5618 5620 5622 5624 5625 5625 5626 5628 5630 5633 5635 5637 5639 5641 5642 5644 5645 5647 5649 5650 5652 5654 5655 5656 5658 5659 5661 5663 5663 5665 5667 5669 5670 5671 5673 5674 5675 5676 5677 5678 5680 5681 5683 5684 5685 5686 5688 5689 5690 5691 5692 5694 5695 5697 5698 5700 5701 5702 5703 5704 5705 5706 5707 5707 5708 5708 5709 5710 5712 5713 5713 5714 5715 5716 5717
5591 5591 5591 5591 5591 5593 5595 5597 5599 5601 5604 5607 5610 5613 5614 5616 5619 5621 5621 5623 5624 5626 5629 5631 5633 5635 5637 5639 5640 5642 5644 5646 5647 5649 5651 5652 5653 5655 5656 5658 5660 5661 5662 5664 5665 5667 5669 5670 5671 5672 5672 5674 5676 5677 5678 5680 5681 5682 5683 5685 5686 5687 5689 5690 5691 5693 5694 5695 5697 5699 5699 5700 5702 5702 5703 5704 5705 5705 5706 5707 5708 5709 5710 5711 5711 5712 5713 5713
5587 5587 5587 5587 5587 5588 5590 5592 5595 5597 5600 5603 5606 5608 5609 5612 5614 5617 5618 5619 5620 5623 5625 5628 5630 5632 5634 5635 5637 5639 5640 5642 5644 5647 5648 5649 5651 5652 5654 5655 5657 5658 5659 5661 5662 5664 5665 5666 5667 5668 5669 5671 5673 5674 5675 5676 5678 5680 5681 5682 5683 5685 5686 5687 5689 5690 5691 5692 5694 5696 5697 5698 5699 5699 5700 5701 5702 5702 5703 5704 5705 5706 5707 5707 5708 5709 5709 5710
5584 5584 5584 5583 5583 5584 5586 5589 5591 5594 5596 5599 5601 5603 5605 5608 5610 5613 5615 5615 5617 5620 5623 5624 5626 5628 5630 5632 5634 5636 5637 5639 5641 5643 5645 5647 5649 5650 5651 5653 5654 5655 5656 5658 5659 5661 5662 5662 5663 5665 5667 5668 5670 5672 5673 5675 5676 5677 5678 5680 5681 5682 5683 5684 5686 5687 5688 5690 5691 5693 5694 5695 5696 5696 5697 5698 5699 5700 5700 5701 5702 5703 5704 5704 5705 5706 5706 5707
5582 5582 5581 5580 5580 5581 5583 5586 5588 5590 5593 5595 5597 5599 5602 5604 5607 5610 5612 5613 5614 5617 5619 5621 5623 5625 5627 5629 5631 5633 5634 5636 5638 5639 5641 5643 5645 5647 5648 5650 5651 5653 5653 5654 5656 5657 5657 5658 5660 5661 5663 5665 5667 5669 5671 5672 5673 5674 5676 5677 5678 5679 5680 5681 5682 5683 5685 5686 5688 5689 5690 5692 5693 5694 5694 5695 5696 5697 5698 5698 5699 5700 5701 5702 5703 5704 5704 5705
5581 5580 5579 5578 5578 5579 5580 5583 5586 5588 5589 5592 5594 5596 5598 5601 5603 5606 5608 5610 5611 5614 5616 5618 5619 5621 5623 5625 5627 5629 5631 5633 5635 5636 5637 5639 5641 5643 5645 5646 5648 5649 5650 5651 5652 5652 5653 5654 5656 5657 5660 5662 5663 5665 5666 5668 5669 5670 5672 5673 5674 5675 5676 5677 5678 5680 5681 5683 5684 5686 5687 5688 5690 5691 5691 5692 5693 5694 5694 5695 5695 5696 5698 5699 5699 5700 5701 5701
5580 5578 5577 5576 5576 5577 5578 5580 5583 5585 5587 5589 5591 5592 5595 5597 5600 5603 5605 5607 5608 5610 5613 5615 5616 5618 5620 5622 5624 5626 5628 5630 5631 5633 5634 5636 5637 5640 5641 5643 5644 5646 5647 5648 5648 5649 5649 5650 5652 5654 5656 5657 5659 5660 5661 5662 5664 5665 5667 5669 5670 5671 5672 5673 5674 5676 5677 5679 5681 5682 5683 5685 5686 5687 5688 5689 5689 5690 5691 5691 5692 5693 5693 5694 5696 5696 5697 5697
5579 5577 5575 5573 5574 5575 5576 5578 5580 5582 5584 5587 5588 5589 5592 5594 5597 5599 5602 5604 5605 5607 5609 5611 5613 5615 5617 5619 5621 5623 5625 5627 5629 5630 5631 5633 5634 5636 5638 5640 5641 5642 5643 5644 5645 5646 5647 5648 5650 5652 5652 5653 5655 5655 5656 5657 5658 5660 5662 5663 5665 5667 5668 5669 5670 5671 5673 5675 5676 5678 5680 5681 5682 5683 5684 5685 5685 5686 5687 5687 5688 5689 5689 5690 5691 5692 5693 5693
5578 5576 5573 5572 5572 5573 5574 5576 5577 5579 5582 5584 5586 5587 5589 5591 5594 5596 5599 5601 5603 5604 5606 5608 5610 5612 5614 5615 5618 5620 5622 5624 5626 5627 5628 5630 5631 5632 5634 5636 5638 5639 5640 5641 5641 5642 5643 5644 5646 5648 5649 5650 5651 5652 5653 5654 5654 5655 5657 5659 5660 5662 5663 5664 5665 5667 5668 5670 5672 5674 5675 5676 5678 5679 5680 5681 5682 5682 5682 5683 5684 5684 5685 5686 5687 5688 5688 5689
5578 5575 5573 5571 5571 5571 5573 5574 5576 5578 5580 5583 5584 5586 5587 5589 5591 5594 5596 5598 5600 5602 5604 5606 5608 5610 5612 5613 5615 5617 5619 5621 5622 5624 5625 5626 5628 5629 5630 5632 5633 5635 5636 5637 5638 5639 5640 5640 5643 5644 5645 5646 5647 5648 5649 5650 5651 5652 5654 5655 5656 5657 5659 5661 5662 5663 5665 5666 5668 5670 5671 5672 5673 5674 5675 5677 5677 5678 5678 5679 5679 5680 5680 5681 5682 5683 5683 5684
5578 5576 5573 5571 5571 5571 5572 5573 5575 5577 5579 5581 5583 5584 5586 5589 5590 5592 5593 5595 5597 5599 5601 5603 5605 5607 5609 5611 5612 5614 5616 5617 5619 5621 5622 5623 5624 5626 5627 5628 5629 5630 5632 5633 5635 5636 5636 5637 5639 5640 5641 5642 5643 5644 5645 5646 5647 5649 5650 5652 5653 5654 5655 5657 5658 5660 5661 5662 5664 5666 5667 5668 5669 5670 5671 5672 5673 5673 5674 5674 5675 5675 5676 5676 5677 5677 5678 5679